Location: Jodow
(51.1700°N, 16.7700°E)
Time: 12:24:49
(UTC+01:00)

ISS - Visible Passes

Search period start: 20 March 2019 00:00
Search period end: 30 March 2019 00:00
Orbit: 406 x 411 km, 51.6° (Epoch: 20 March)

Date Brightness Start Highest point End Pass type
(mag) Time Alt. Az. Time Alt. Az. Time Alt. Az.
22 Mar -2.3 19:38:35 10° SSW 19:40:47 22° SSE 19:40:47 22° SSE visible
23 Mar -1.9 18:48:25 10° S 18:50:26 15° SE 18:52:26 10° ESE visible
23 Mar -2.5 20:23:14 10° WSW 20:25:14 32° SW 20:25:14 32° SW visible
24 Mar -3.3 19:32:25 10° SW 19:35:31 40° SSE 19:36:43 28° ESE visible
24 Mar -1.1 21:08:39 10° W 21:09:28 16° W 21:09:28 16° W visible
25 Mar -3.9 20:17:35 10° WSW 20:20:47 80° SSW 20:20:47 80° SSW visible
26 Mar -3.8 19:26:34 10° WSW 19:29:51 66° SSE 19:31:58 20° E visible
26 Mar -1.8 21:03:06 10° W 21:04:43 26° W 21:04:43 26° W visible
27 Mar -3.9 20:12:00 10° W 20:15:19 82° N 20:15:48 61° ENE visible
28 Mar -3.8 19:20:53 10° W 19:24:12 90° SSE 19:26:49 15° E visible
28 Mar -2.3 20:57:30 10° W 20:59:33 35° W 20:59:33 35° W visible
29 Mar -3.8 20:06:23 10° W 20:09:42 82° N 20:10:30 48° E visible
29 Mar -0.6 21:42:59 10° W 21:43:14 12° W 21:43:14 12° W visible
